QFA598 YSSY-YBCG

Flight info

Callsign QFA598
Flight time 1h 6m
Altitude 35000
Route TESAT H252 OLSEM Y193 BANDA Y43 GREAV DCT GOMOL
Aircraft B738/M-SDE2E3FGHIRWXY/LB1

Departure

Time 2026-05-06 20:48
Airport Sydney Kingsford Smith International Airport (YSSY)

Arrival

Time 2026-05-06 21:55
Airport Gold Coast Airport (YBCG)
Time Latitude Longitude Altitude Speed Heading
2026-05-06 20:35 -33.93610 151.17820 28 ft 2 kts 191°
2026-05-06 20:36 -33.93609 151.17821 28 ft 0 kts 190°
2026-05-06 20:38 -33.93622 151.17818 29 ft 4 kts 190°
2026-05-06 20:39 -33.93653 151.17811 29 ft 5 kts 190°
2026-05-06 20:39 -33.93684 151.17803 29 ft 5 kts 194°
2026-05-06 20:39 -33.93715 151.17794 29 ft 5 kts 194°
2026-05-06 20:39 -33.93745 151.17785 29 ft 4 kts 194°
2026-05-06 20:40 -33.93775 151.17776 29 ft 4 kts 194°
2026-05-06 20:40 -33.93798 151.17769 29 ft 0 kts 194°
2026-05-06 20:41 -33.93822 151.17760 29 ft 5 kts 202°
2026-05-06 20:41 -33.93849 151.17730 29 ft 5 kts 240°
2026-05-06 20:42 -33.93863 151.17688 28 ft 5 kts 250°
2026-05-06 20:42 -33.93875 151.17645 28 ft 5 kts 252°
2026-05-06 20:42 -33.93886 151.17603 28 ft 5 kts 254°
2026-05-06 20:42 -33.93900 151.17537 27 ft 15 kts 256°
2026-05-06 20:43 -33.93933 151.17384 25 ft 20 kts 254°
2026-05-06 20:43 -33.93992 151.17246 28 ft 19 kts 202°
2026-05-06 20:43 -33.94118 151.17262 28 ft 18 kts 168°
2026-05-06 20:43 -33.94241 151.17293 28 ft 17 kts 168°
2026-05-06 20:44 -33.94355 151.17323 29 ft 17 kts 167°
2026-05-06 20:44 -33.94465 151.17351 29 ft 16 kts 168°
2026-05-06 20:44 -33.94570 151.17385 28 ft 16 kts 158°
2026-05-06 20:44 -33.94674 151.17414 29 ft 16 kts 178°
2026-05-06 20:45 -33.94779 151.17437 29 ft 15 kts 169°
2026-05-06 20:45 -33.94881 151.17459 28 ft 14 kts 170°
2026-05-06 20:45 -33.94974 151.17483 28 ft 14 kts 167°
2026-05-06 20:45 -33.95084 151.17511 29 ft 22 kts 168°
2026-05-06 20:46 -33.95257 151.17555 28 ft 29 kts 168°
2026-05-06 20:46 -33.95466 151.17606 29 ft 33 kts 169°
2026-05-06 20:46 -33.95650 151.17660 29 ft 9 kts 167°
2026-05-06 20:46 -33.95728 151.17680 29 ft 13 kts 168°
2026-05-06 20:47 -33.95833 151.17713 29 ft 19 kts 155°
2026-05-06 20:47 -33.95878 151.17850 28 ft 19 kts 70°
2026-05-06 20:47 -33.95806 151.17898 27 ft 21 kts 354°
2026-05-06 20:47 -33.95328 151.17776 28 ft 104 kts 347°
2026-05-06 20:48 -33.94723 151.17618 28 ft 154 kts 348°
2026-05-06 20:48 -33.93499 151.17297 369 ft 193 kts 345°
2026-05-06 20:48 -33.92137 151.16928 1325 ft 199 kts 342°
2026-05-06 20:48 -33.90760 151.16542 2288 ft 203 kts 340°
2026-05-06 20:49 -33.89328 151.16173 2891 ft 222 kts 339°
2026-05-06 20:49 -33.87802 151.15736 3645 ft 226 kts 336°
2026-05-06 20:49 -33.86239 151.15178 4225 ft 245 kts 337°
2026-05-06 20:49 -33.84540 151.14587 4830 ft 260 kts 339°
2026-05-06 20:50 -33.82748 151.14156 5589 ft 270 kts 356°
2026-05-06 20:50 -33.80946 151.14656 6415 ft 268 kts 21°
2026-05-06 20:50 -33.79325 151.15902 6673 ft 290 kts 37°
2026-05-06 20:50 -33.77944 151.17737 7203 ft 300 kts 53°
2026-05-06 20:51 -33.76901 151.19960 7712 ft 311 kts 62°
2026-05-06 20:51 -33.75942 151.22435 7901 ft 330 kts 63°
2026-05-06 20:51 -33.74960 151.24977 8351 ft 340 kts 63°
2026-05-06 20:51 -33.73962 151.27568 8988 ft 343 kts 62°
2026-05-06 20:52 -33.72987 151.30139 10185 ft 332 kts 62°
2026-05-06 20:52 -33.72049 151.32658 10939 ft 338 kts 62°
2026-05-06 20:52 -33.71053 151.35340 11160 ft 360 kts 62°
2026-05-06 20:52 -33.70019 151.38121 11655 ft 370 kts 63°
2026-05-06 20:53 -33.68959 151.40968 12323 ft 375 kts 62°
2026-05-06 20:53 -33.67889 151.43848 13026 ft 380 kts 62°
2026-05-06 20:53 -33.66820 151.46722 13671 ft 385 kts 60°
2026-05-06 20:53 -33.65417 151.49514 14288 ft 384 kts 48°
2026-05-06 20:54 -33.63677 151.51925 14957 ft 381 kts 38°
2026-05-06 20:54 -33.61657 151.53950 15617 ft 379 kts 32°
2026-05-06 20:54 -33.59552 151.55881 16268 ft 382 kts 31°
2026-05-06 20:54 -33.57428 151.57808 16899 ft 385 kts 31°
2026-05-06 20:55 -33.55289 151.59756 17539 ft 388 kts 31°
2026-05-06 20:55 -33.53130 151.61738 18153 ft 392 kts 31°
2026-05-06 20:55 -33.50962 151.63740 18659 ft 397 kts 32°
2026-05-06 20:55 -33.48792 151.65754 19395 ft 393 kts 31°
2026-05-06 20:56 -33.46566 151.67821 19970 ft 396 kts 31°
2026-05-06 20:56 -33.44432 151.69800 20424 ft 401 kts 31°
2026-05-06 20:56 -33.42219 151.71850 20946 ft 404 kts 31°
2026-05-06 20:56 -33.39998 151.73906 21495 ft 406 kts 31°
2026-05-06 20:57 -33.37690 151.75808 22001 ft 401 kts 22°
2026-05-06 20:57 -33.35176 151.77206 22514 ft 395 kts 12°
2026-05-06 20:57 -33.32543 151.78121 23003 ft 393 kts
2026-05-06 20:57 -33.29860 151.78967 23478 ft 396 kts
2026-05-06 20:58 -33.27193 151.79796 23917 ft 398 kts
2026-05-06 20:58 -33.24523 151.80629 24328 ft 400 kts
2026-05-06 20:58 -33.21822 151.81480 24734 ft 402 kts
2026-05-06 20:58 -33.19111 151.82340 25133 ft 405 kts
2026-05-06 20:59 -33.16392 151.83208 25516 ft 407 kts
2026-05-06 20:59 -33.13653 151.84086 25899 ft 409 kts
2026-05-06 20:59 -33.10886 151.84974 26235 ft 411 kts
2026-05-06 20:59 -33.08110 151.85865 26568 ft 415 kts
2026-05-06 21:00 -33.05304 151.86767 26944 ft 416 kts
2026-05-06 21:00 -33.02479 151.87674 27324 ft 418 kts
2026-05-06 21:00 -32.99698 151.88567 27664 ft 420 kts
2026-05-06 21:00 -32.96842 151.89483 28007 ft 422 kts
2026-05-06 21:01 -32.93972 151.90402 28338 ft 425 kts
2026-05-06 21:01 -32.91104 151.91321 28665 ft 427 kts
2026-05-06 21:01 -32.88238 151.92238 28959 ft 429 kts
2026-05-06 21:01 -32.85352 151.93161 29261 ft 431 kts
2026-05-06 21:02 -32.82446 151.94090 29556 ft 433 kts
2026-05-06 21:02 -32.79547 151.95016 29896 ft 433 kts
2026-05-06 21:02 -32.76631 151.95948 30305 ft 432 kts
2026-05-06 21:02 -32.73728 151.96878 30686 ft 430 kts
2026-05-06 21:03 -32.70845 151.97798 31012 ft 430 kts
2026-05-06 21:03 -32.67995 151.98706 31295 ft 430 kts
2026-05-06 21:03 -32.65097 151.99628 31612 ft 430 kts
2026-05-06 21:03 -32.62213 152.00545 31951 ft 429 kts
2026-05-06 21:04 -32.59355 152.01454 32296 ft 429 kts
2026-05-06 21:04 -32.56443 152.02379 32601 ft 428 kts
2026-05-06 21:04 -32.53569 152.03291 32895 ft 428 kts
2026-05-06 21:04 -32.50684 152.04205 33205 ft 428 kts
2026-05-06 21:05 -32.47812 152.05116 33510 ft 427 kts
2026-05-06 21:05 -32.44936 152.06027 33792 ft 427 kts
2026-05-06 21:05 -32.42078 152.06933 34009 ft 427 kts
2026-05-06 21:05 -32.39200 152.07845 34223 ft 428 kts
2026-05-06 21:06 -32.36330 152.08752 34482 ft 427 kts
2026-05-06 21:06 -32.33461 152.09659 34734 ft 426 kts
2026-05-06 21:06 -32.30598 152.10561 34973 ft 426 kts
2026-05-06 21:07 -32.24826 152.12376 35046 ft 431 kts
2026-05-06 21:07 -32.19034 152.14200 35052 ft 428 kts
2026-05-06 21:08 -32.13307 152.16008 35053 ft 425 kts
2026-05-06 21:08 -32.07610 152.17799 35050 ft 423 kts
2026-05-06 21:09 -32.01929 152.19580 35046 ft 422 kts
2026-05-06 21:09 -31.96256 152.21356 35036 ft 422 kts
2026-05-06 21:10 -31.90583 152.23130 35055 ft 422 kts
2026-05-06 21:10 -31.84898 152.24906 35053 ft 424 kts
2026-05-06 21:11 -31.79184 152.26688 35066 ft 426 kts
2026-05-06 21:11 -31.73449 152.28475 35056 ft 427 kts
2026-05-06 21:12 -31.67704 152.30265 35061 ft 429 kts
2026-05-06 21:12 -31.61930 152.32059 35053 ft 430 kts
2026-05-06 21:13 -31.56141 152.33858 35049 ft 431 kts
2026-05-06 21:13 -31.50341 152.35659 35043 ft 430 kts
2026-05-06 21:14 -31.44568 152.37436 35061 ft 429 kts
2026-05-06 21:14 -31.38798 152.39229 35050 ft 429 kts
2026-05-06 21:15 -31.33025 152.41011 35053 ft 427 kts
2026-05-06 21:15 -31.27305 152.42779 35067 ft 425 kts
2026-05-06 21:16 -31.21578 152.44550 35057 ft 425 kts
2026-05-06 21:16 -31.15860 152.46308 35066 ft 424 kts
2026-05-06 21:17 -31.10152 152.48070 35067 ft 424 kts
2026-05-06 21:17 -31.04450 152.49816 35060 ft 423 kts
2026-05-06 21:18 -30.98754 152.51560 35065 ft 424 kts
2026-05-06 21:18 -30.93040 152.53310 35076 ft 425 kts
2026-05-06 21:19 -30.87322 152.55060 35056 ft 425 kts
2026-05-06 21:19 -30.81603 152.56809 35031 ft 424 kts
2026-05-06 21:20 -30.76866 152.58547 35065 ft 433 kts 10°
2026-05-06 21:20 -30.71276 152.61219 35056 ft 435 kts 11°
2026-05-06 21:21 -30.65680 152.63910 35080 ft 435 kts 11°
2026-05-06 21:21 -30.60056 152.66550 35027 ft 436 kts
2026-05-06 21:22 -30.54421 152.69158 35061 ft 437 kts
2026-05-06 21:22 -30.48769 152.71766 35067 ft 438 kts
2026-05-06 21:23 -30.43090 152.74383 35073 ft 440 kts
2026-05-06 21:23 -30.37402 152.76997 35064 ft 440 kts
2026-05-06 21:24 -30.31712 152.79630 35061 ft 441 kts
2026-05-06 21:24 -30.26064 152.82225 35039 ft 441 kts
2026-05-06 21:25 -30.20320 152.84862 35071 ft 441 kts
2026-05-06 21:25 -30.14622 152.87478 35044 ft 440 kts
2026-05-06 21:26 -30.08944 152.90076 35051 ft 438 kts
2026-05-06 21:26 -30.06145 152.91358 35014 ft 426 kts
2026-05-06 21:26 -30.03429 152.92597 34815 ft 417 kts
2026-05-06 21:26 -30.00757 152.93825 34543 ft 410 kts
2026-05-06 21:27 -29.98114 152.95035 34190 ft 407 kts
2026-05-06 21:27 -29.95494 152.96229 33813 ft 404 kts
2026-05-06 21:27 -29.92884 152.97416 33385 ft 401 kts
2026-05-06 21:27 -29.90308 152.98588 33037 ft 397 kts
2026-05-06 21:28 -29.87747 152.99751 32672 ft 394 kts
2026-05-06 21:28 -29.85210 153.00903 32313 ft 391 kts
2026-05-06 21:28 -29.82687 153.02048 31963 ft 388 kts
2026-05-06 21:28 -29.80193 153.03180 31620 ft 385 kts
2026-05-06 21:29 -29.77702 153.04310 31275 ft 382 kts 10°
2026-05-06 21:29 -29.75245 153.05424 30937 ft 380 kts 10°
2026-05-06 21:29 -29.72788 153.06537 30596 ft 377 kts 11°
2026-05-06 21:29 -29.70354 153.07639 30226 ft 375 kts 11°
2026-05-06 21:30 -29.67936 153.08735 29860 ft 372 kts 11°
2026-05-06 21:30 -29.65538 153.09821 29507 ft 369 kts 11°
2026-05-06 21:30 -29.63167 153.10895 29152 ft 365 kts 11°
2026-05-06 21:30 -29.60808 153.11963 28802 ft 362 kts 11°
2026-05-06 21:31 -29.58481 153.13016 28454 ft 358 kts 11°
2026-05-06 21:31 -29.56164 153.14062 28108 ft 356 kts 11°
2026-05-06 21:31 -29.53877 153.15095 27767 ft 353 kts 11°
2026-05-06 21:31 -29.51599 153.16123 27431 ft 350 kts 11°
2026-05-06 21:32 -29.49377 153.17125 27106 ft 347 kts 11°
2026-05-06 21:32 -29.44908 153.19140 26438 ft 341 kts 10°
2026-05-06 21:32 -29.42708 153.20131 26115 ft 339 kts 11°
2026-05-06 21:33 -29.40522 153.21115 25795 ft 337 kts 11°
2026-05-06 21:33 -29.38349 153.22093 25484 ft 335 kts 11°
2026-05-06 21:33 -29.36189 153.23064 25167 ft 334 kts 11°
2026-05-06 21:33 -29.34023 153.24036 24848 ft 334 kts 11°
2026-05-06 21:34 -29.31857 153.25007 24532 ft 336 kts 11°
2026-05-06 21:34 -29.29618 153.26006 24192 ft 346 kts 12°
2026-05-06 21:34 -29.27361 153.27013 23856 ft 349 kts 12°
2026-05-06 21:34 -29.25095 153.28032 23468 ft 349 kts 12°
2026-05-06 21:35 -29.22844 153.29046 23068 ft 347 kts 12°
2026-05-06 21:35 -29.20613 153.30051 22727 ft 344 kts 12°
2026-05-06 21:35 -29.18394 153.31049 22399 ft 341 kts 12°
2026-05-06 21:35 -29.16221 153.32025 22066 ft 339 kts 12°
2026-05-06 21:36 -29.14028 153.33008 21746 ft 336 kts 13°
2026-05-06 21:36 -29.11883 153.33968 21420 ft 334 kts 13°
2026-05-06 21:36 -29.09742 153.34926 21101 ft 332 kts 13°
2026-05-06 21:36 -29.07558 153.35903 20773 ft 330 kts 13°
2026-05-06 21:37 -29.05418 153.36859 20453 ft 328 kts 13°
2026-05-06 21:37 -29.03302 153.37804 20137 ft 327 kts 13°
2026-05-06 21:37 -29.01183 153.38751 19819 ft 325 kts 13°
2026-05-06 21:37 -28.99084 153.39687 19492 ft 324 kts 13°
2026-05-06 21:38 -28.96990 153.40622 19185 ft 322 kts 14°
2026-05-06 21:38 -28.94905 153.41552 18883 ft 321 kts 14°
2026-05-06 21:38 -28.92830 153.42477 18571 ft 321 kts 14°
2026-05-06 21:38 -28.90749 153.43404 18228 ft 320 kts 14°
2026-05-06 21:39 -28.88682 153.44325 17874 ft 319 kts 14°
2026-05-06 21:39 -28.86619 153.45245 17545 ft 317 kts 14°
2026-05-06 21:39 -28.84577 153.46154 17221 ft 315 kts 14°
2026-05-06 21:39 -28.82533 153.47064 16844 ft 315 kts 14°
2026-05-06 21:40 -28.80497 153.47972 16506 ft 314 kts 14°
2026-05-06 21:40 -28.78467 153.48880 16211 ft 312 kts 14°
2026-05-06 21:40 -28.76453 153.49779 15904 ft 310 kts 14°
2026-05-06 21:40 -28.74453 153.50672 15607 ft 308 kts 14°
2026-05-06 21:41 -28.72475 153.51556 15392 ft 303 kts 14°
2026-05-06 21:41 -28.70525 153.52430 15115 ft 302 kts 16°
2026-05-06 21:41 -28.68741 153.53762 14768 ft 316 kts 40°
2026-05-06 21:41 -28.67534 153.55900 14470 ft 327 kts 66°
2026-05-06 21:42 -28.67109 153.58447 14193 ft 330 kts 83°
2026-05-06 21:42 -28.67013 153.61053 13922 ft 329 kts 86°
2026-05-06 21:42 -28.66963 153.63654 13599 ft 328 kts 86°
2026-05-06 21:42 -28.66921 153.66234 13291 ft 326 kts 86°
2026-05-06 21:43 -28.66881 153.68808 13020 ft 324 kts 86°
2026-05-06 21:43 -28.66842 153.71359 12743 ft 321 kts 86°
2026-05-06 21:43 -28.66584 153.73862 12429 ft 315 kts 68°
2026-05-06 21:43 -28.65535 153.75972 12161 ft 301 kts 41°
2026-05-06 21:44 -28.63948 153.77440 11906 ft 291 kts 28°
2026-05-06 21:44 -28.62252 153.78698 11595 ft 290 kts 27°
2026-05-06 21:44 -28.60543 153.79918 11289 ft 289 kts 27°
2026-05-06 21:44 -28.58837 153.81121 11010 ft 288 kts 27°
2026-05-06 21:45 -28.57144 153.82305 10741 ft 286 kts 27°
2026-05-06 21:45 -28.55439 153.83475 10429 ft 285 kts 27°
2026-05-06 21:45 -28.53711 153.84621 10141 ft 284 kts 24°
2026-05-06 21:45 -28.51873 153.85252 9757 ft 273 kts 359°
2026-05-06 21:46 -28.50048 153.84872 9234 ft 266 kts 331°
2026-05-06 21:46 -28.48634 153.83579 8719 ft 262 kts 304°
2026-05-06 21:46 -28.47771 153.81781 8289 ft 258 kts 294°
2026-05-06 21:46 -28.47036 153.79917 7855 ft 257 kts 293°
2026-05-06 21:47 -28.46318 153.78055 7392 ft 257 kts 292°
2026-05-06 21:47 -28.45605 153.76204 6987 ft 255 kts 292°
2026-05-06 21:47 -28.44899 153.74365 6578 ft 254 kts 292°
2026-05-06 21:47 -28.44173 153.72481 6123 ft 253 kts 292°
2026-05-06 21:48 -28.43476 153.70679 5703 ft 252 kts 292°
2026-05-06 21:48 -28.42767 153.68841 5282 ft 250 kts 292°
2026-05-06 21:48 -28.42016 153.67107 4980 ft 244 kts 305°
2026-05-06 21:48 -28.40681 153.65919 4478 ft 249 kts 332°
2026-05-06 21:49 -28.39106 153.65036 4109 ft 246 kts 331°
2026-05-06 21:49 -28.37638 153.64173 4012 ft 231 kts 329°
2026-05-06 21:49 -28.36281 153.63262 3635 ft 230 kts 327°
2026-05-06 21:49 -28.34933 153.62356 3486 ft 217 kts 328°
2026-05-06 21:50 -28.33672 153.61537 3420 ft 199 kts 329°
2026-05-06 21:50 -28.32528 153.60805 3402 ft 186 kts 328°
2026-05-06 21:50 -28.31373 153.60068 3176 ft 191 kts 329°
2026-05-06 21:50 -28.30232 153.59343 2941 ft 185 kts 329°
2026-05-06 21:51 -28.29170 153.58669 2705 ft 167 kts 329°
2026-05-06 21:51 -28.28193 153.58048 2472 ft 152 kts 328°
2026-05-06 21:51 -28.27310 153.57487 2291 ft 144 kts 328°
2026-05-06 21:51 -28.26439 153.56932 2150 ft 142 kts 329°
2026-05-06 21:52 -28.25566 153.56376 1918 ft 144 kts 329°
2026-05-06 21:52 -28.24701 153.55826 1718 ft 142 kts 329°
2026-05-06 21:52 -28.23840 153.55274 1518 ft 145 kts 329°
2026-05-06 21:52 -28.22992 153.54705 1340 ft 140 kts 328°
2026-05-06 21:53 -28.22118 153.54155 1186 ft 147 kts 331°
2026-05-06 21:53 -28.21217 153.53618 972 ft 144 kts 329°
2026-05-06 21:53 -28.20346 153.53038 739 ft 144 kts 328°
2026-05-06 21:53 -28.19477 153.52503 551 ft 143 kts 330°
2026-05-06 21:54 -28.18611 153.51944 325 ft 145 kts 330°
2026-05-06 21:54 -28.18028 153.51580 202 ft 142 kts 331°
2026-05-06 21:54 -28.17175 153.51035 39 ft 134 kts 331°
2026-05-06 21:54 -28.16445 153.50576 28 ft 101 kts 330°
2026-05-06 21:55 -28.16062 153.50334 29 ft 42 kts 331°
2026-05-06 21:55 -28.15888 153.50224 28 ft 26 kts 331°
2026-05-06 21:55 -28.15789 153.50161 28 ft 15 kts 331°
2026-05-06 21:55 -28.15700 153.50110 25 ft 14 kts 344°
2026-05-06 21:56 -28.15619 153.50150 29 ft 13 kts 64°
2026-05-06 21:56 -28.15623 153.50251 29 ft 13 kts 104°
2026-05-06 21:56 -28.15689 153.50314 27 ft 13 kts 151°
2026-05-06 21:56 -28.15765 153.50361 29 ft 12 kts 151°
2026-05-06 21:57 -28.15839 153.50406 28 ft 12 kts 151°
2026-05-06 21:57 -28.15911 153.50451 26 ft 12 kts 151°
2026-05-06 21:57 -28.15981 153.50494 27 ft 11 kts 151°
2026-05-06 21:57 -28.16049 153.50539 28 ft 11 kts 149°
2026-05-06 21:58 -28.16115 153.50582 26 ft 11 kts 150°
2026-05-06 21:58 -28.16179 153.50624 25 ft 10 kts 150°
2026-05-06 21:58 -28.16241 153.50664 29 ft 10 kts 150°
2026-05-06 21:58 -28.16301 153.50703 26 ft 10 kts 150°
2026-05-06 21:59 -28.16358 153.50740 28 ft 10 kts 150°
2026-05-06 21:59 -28.16416 153.50772 26 ft 9 kts 157°
2026-05-06 21:59 -28.16472 153.50808 26 ft 9 kts 151°
2026-05-06 21:59 -28.16495 153.50866 26 ft 9 kts 75°
2026-05-06 22:00 -28.16480 153.50931 26 ft 9 kts 111°
2026-05-06 22:00 -28.16533 153.50962 27 ft 8 kts 158°
2026-05-06 22:00 -28.16587 153.50987 26 ft 8 kts 158°
2026-05-06 22:00 -28.16636 153.51019 26 ft 8 kts 149°
2026-05-06 22:01 -28.16683 153.51050 26 ft 8 kts 149°
2026-05-06 22:01 -28.16729 153.51081 26 ft 7 kts 149°
2026-05-06 22:01 -28.16771 153.51109 26 ft 7 kts 149°
2026-05-06 22:01 -28.16779 153.51114 26 ft 0 kts 147°
2026-05-06 22:02 -28.16770 153.51126 28 ft 4 kts 35°
2026-05-06 22:02 -28.16747 153.51151 25 ft 5 kts 55°
2026-05-06 22:02 -28.16729 153.51188 26 ft 5 kts 61°
2026-05-06 22:02 -28.16721 153.51205 25 ft 0 kts 60°